Time,TemperatureF,DewpointF,PressureIn,WindDirection,WindDirectionDegrees,WindSpeedMPH,WindSpeedGustMPH,Humidity,HourlyPrecipIn,Conditions,Clouds,dailyrainin,SolarRadiationWatts/m^2,SoftwareType,DateUTC
2013-03-01 00:21:00,25.0,7.0,-100.00,North,7,4.0,8.0,45,0.00,,,0.00,0.000000,,2013-03-01 07:21:00,
2013-03-01 00:32:00,25.0,7.0,-100.00,North,7,4.0,8.0,45,0.00,,,0.00,0.000000,,2013-03-01 07:32:00,
2013-03-01 01:22:00,24.0,7.0,-100.00,NNE,23,4.0,8.0,47,0.00,,,0.00,0.000000,,2013-03-01 08:22:00,
2013-03-01 01:32:00,24.0,7.0,-100.00,NNE,23,4.0,8.0,47,0.00,,,0.00,0.000000,,2013-03-01 08:32:00,
2013-03-01 02:11:00,23.0,6.0,-100.00,NNE,27,3.0,9.0,48,0.00,,,-99.99,0.000000,,2013-03-01 09:11:00,
2013-03-01 04:22:00,22.0,8.0,-100.00,NNE,21,4.0,7.0,53,-99.99,,,0.00,0.000000,,2013-03-01 11:22:00,
2013-03-01 05:21:00,21.0,7.0,-100.00,NNE,20,3.0,7.0,54,0.00,,,0.00,0.000000,,2013-03-01 12:21:00,
2013-03-01 06:21:00,21.0,7.0,-100.00,NNE,29,3.0,7.0,55,-99.99,,,0.00,0.000000,,2013-03-01 13:21:00,
2013-03-01 07:21:00,19.0,7.0,-100.00,North,357,4.0,6.0,58,-99.99,,,0.00,3.000000,,2013-03-01 14:21:00,
2013-03-01 08:21:00,27.0,10.0,-100.00,WSW,241,1.0,4.0,48,-99.99,,,0.00,117.000000,,2013-03-01 15:21:00,
2013-03-01 08:31:00,27.0,10.0,-100.00,WSW,241,1.0,4.0,48,-99.99,,,0.00,117.000000,,2013-03-01 15:31:00,
2013-03-01 10:11:00,35.0,12.0,-100.00,SE,139,6.0,8.0,38,-99.99,,,0.00,524.000000,,2013-03-01 17:11:00,
2013-03-01 10:21:00,35.0,12.0,-100.00,SE,139,6.0,8.0,38,-99.99,,,0.00,524.000000,,2013-03-01 17:21:00,
2013-03-01 11:22:00,38.0,12.0,-100.00,SSW,212,5.0,10.0,34,0.00,,,0.00,677.000000,,2013-03-01 18:22:00,
2013-03-01 11:31:00,38.0,12.0,-100.00,SSW,212,5.0,10.0,34,0.00,,,0.00,677.000000,,2013-03-01 18:31:00,
2013-03-01 11:41:00,38.0,12.0,-100.00,SSW,212,5.0,10.0,34,0.00,,,0.00,677.000000,,2013-03-01 18:41:00,
2013-03-01 11:52:00,38.0,12.0,-100.00,SSW,212,5.0,10.0,34,0.00,,,0.00,677.000000,,2013-03-01 18:52:00,
2013-03-01 12:21:00,42.0,12.0,-100.00,SSW,205,6.0,10.0,29,0.00,,,0.00,775.000000,,2013-03-01 19:21:00,
2013-03-01 12:31:00,42.0,12.0,-100.00,SSW,205,6.0,10.0,29,0.00,,,0.00,775.000000,,2013-03-01 19:31:00,
2013-03-01 12:41:00,42.0,12.0,-100.00,SSW,205,6.0,10.0,29,0.00,,,0.00,775.000000,,2013-03-01 19:41:00,
2013-03-01 12:51:00,42.0,12.0,-100.00,SSW,205,6.0,10.0,29,0.00,,,0.00,775.000000,,2013-03-01 19:51:00,
2013-03-01 13:21:00,45.0,13.0,-100.00,SSW,199,6.0,11.0,27,0.00,,,0.00,808.000000,,2013-03-01 20:21:00,
2013-03-01 13:31:00,45.0,13.0,-100.00,SSW,199,6.0,11.0,27,0.00,,,0.00,808.000000,,2013-03-01 20:31:00,
2013-03-01 13:41:00,45.0,13.0,-100.00,SSW,199,6.0,11.0,27,0.00,,,0.00,808.000000,,2013-03-01 20:41:00,
2013-03-01 13:52:00,45.0,13.0,-100.00,SSW,199,6.0,11.0,27,0.00,,,0.00,808.000000,,2013-03-01 20:52:00,
2013-03-01 14:21:00,47.0,16.0,-100.00,SSW,204,6.0,12.0,29,0.00,,,0.00,769.000000,,2013-03-01 21:21:00,
2013-03-01 14:31:00,47.0,16.0,-100.00,SSW,204,6.0,12.0,29,0.00,,,0.00,769.000000,,2013-03-01 21:31:00,
2013-03-01 14:41:00,47.0,16.0,-100.00,SSW,204,6.0,12.0,29,0.00,,,0.00,769.000000,,2013-03-01 21:41:00,
2013-03-01 14:51:00,47.0,16.0,-100.00,SSW,204,6.0,12.0,29,0.00,,,0.00,769.000000,,2013-03-01 21:51:00,
2013-03-01 15:21:00,48.0,17.0,-100.00,SW,229,5.0,13.0,29,0.00,,,0.00,670.000000,,2013-03-01 22:21:00,
2013-03-01 15:31:00,48.0,17.0,-100.00,SW,229,5.0,13.0,29,0.00,,,0.00,670.000000,,2013-03-01 22:31:00,
2013-03-01 15:41:00,48.0,17.0,-100.00,SW,229,5.0,13.0,29,0.00,,,0.00,670.000000,,2013-03-01 22:41:00,
2013-03-01 15:51:00,48.0,17.0,-100.00,SW,229,5.0,13.0,29,0.00,,,0.00,670.000000,,2013-03-01 22:51:00,
2013-03-01 16:21:00,49.0,18.0,-100.00,SW,236,5.0,10.0,29,0.00,,,0.00,516.000000,,2013-03-01 23:21:00,
2013-03-01 16:31:00,49.0,18.0,-100.00,SW,236,5.0,10.0,29,0.00,,,0.00,516.000000,,2013-03-01 23:31:00,
2013-03-01 16:41:00,49.0,18.0,-100.00,SW,236,5.0,10.0,29,0.00,,,0.00,516.000000,,2013-03-01 23:41:00,
2013-03-01 16:52:00,49.0,18.0,-100.00,SW,236,5.0,10.0,29,0.00,,,0.00,516.000000,,2013-03-01 23:52:00,
2013-03-01 17:21:00,48.0,18.0,-100.00,SSW,204,5.0,10.0,30,0.00,,,0.00,324.000000,,2013-03-02 00:21:00,
2013-03-01 17:31:00,48.0,18.0,-100.00,SSW,204,5.0,10.0,30,0.00,,,0.00,324.000000,,2013-03-02 00:31:00,
2013-03-01 17:42:00,48.0,18.0,-100.00,SSW,204,5.0,10.0,30,0.00,,,0.00,324.000000,,2013-03-02 00:42:00,
2013-03-01 17:52:00,48.0,18.0,-100.00,SSW,204,5.0,10.0,30,0.00,,,0.00,324.000000,,2013-03-02 00:52:00,
2013-03-01 18:21:00,46.0,20.0,-100.00,SSW,209,1.0,8.0,35,0.00,,,0.00,109.000000,,2013-03-02 01:21:00,
2013-03-01 18:31:00,46.0,20.0,-100.00,SSW,209,1.0,8.0,35,0.00,,,0.00,109.000000,,2013-03-02 01:31:00,
2013-03-01 18:41:00,46.0,20.0,-100.00,SSW,209,1.0,8.0,35,0.00,,,0.00,109.000000,,2013-03-02 01:41:00,
2013-03-01 18:51:00,46.0,20.0,-100.00,SSW,209,1.0,8.0,35,0.00,,,0.00,109.000000,,2013-03-02 01:51:00,
2013-03-01 19:21:00,37.0,19.0,-100.00,NNE,14,7.0,10.0,47,0.00,,,0.00,2.000000,,2013-03-02 02:21:00,
2013-03-01 19:31:00,37.0,19.0,-100.00,NNE,14,7.0,10.0,47,0.00,,,0.00,2.000000,,2013-03-02 02:31:00,
2013-03-01 19:41:00,37.0,19.0,-100.00,NNE,14,7.0,10.0,47,0.00,,,0.00,2.000000,,2013-03-02 02:41:00,
2013-03-01 19:52:00,37.0,19.0,-100.00,NNE,14,7.0,10.0,47,0.00,,,0.00,2.000000,,2013-03-02 02:52:00,
2013-03-01 20:21:00,35.0,19.0,-100.00,NNE,15,6.0,10.0,51,0.00,,,0.00,0.000000,,2013-03-02 03:21:00,
2013-03-01 20:32:00,35.0,19.0,-100.00,NNE,15,6.0,10.0,51,0.00,,,0.00,0.000000,,2013-03-02 03:32:00,
2013-03-01 20:41:00,35.0,19.0,-100.00,NNE,15,6.0,10.0,51,0.00,,,0.00,0.000000,,2013-03-02 03:41:00,
2013-03-01 20:52:00,35.0,19.0,-100.00,NNE,15,6.0,10.0,51,0.00,,,0.00,0.000000,,2013-03-02 03:52:00,
2013-03-01 21:21:00,35.0,18.0,-100.00,North,11,3.0,8.0,49,0.00,,,0.00,0.000000,,2013-03-02 04:21:00,
2013-03-01 21:32:00,35.0,18.0,-100.00,North,11,3.0,8.0,49,0.00,,,0.00,0.000000,,2013-03-02 04:32:00,
2013-03-01 21:41:00,35.0,18.0,-100.00,North,11,3.0,8.0,49,0.00,,,0.00,0.000000,,2013-03-02 04:41:00,
2013-03-01 21:51:00,35.0,18.0,-100.00,North,11,3.0,8.0,49,0.00,,,0.00,0.000000,,2013-03-02 04:51:00,
2013-03-01 22:22:00,35.0,17.0,-100.00,ENE,78,2.0,6.0,47,-99.99,,,0.00,0.000000,,2013-03-02 05:22:00,
2013-03-01 23:21:00,32.0,17.0,-100.00,North,6,5.0,7.0,54,0.00,,,0.00,0.000000,,2013-03-02 06:21:00,
2013-03-01 23:31:00,32.0,17.0,-100.00,North,6,5.0,7.0,54,0.00,,,0.00,0.000000,,2013-03-02 06:31:00,
2013-03-01 23:41:00,32.0,17.0,-100.00,North,6,5.0,7.0,54,0.00,,,0.00,0.000000,,2013-03-02 06:41:00,
2013-03-01 23:51:00,32.0,17.0,-100.00,North,6,5.0,7.0,54,0.00,,,0.00,0.000000,,2013-03-02 06:51:00,